GFSNGP_sfc_rhum_165.txt.gz
RH
64 58 49 66 76 62 86 79 100 75 70 61 64 62 46 36 35 32 34 36 40 49 58 63 74 90 82 87 100 100 100 99 100 97 82 64 62 53 50 51 48 43 47 48
91 42 53 58 46 39 40 36 49 60 54 35 38 51 50 37 34 36 36 38 40 47 52 60 65 78 76 81 92 87 100 100 100 98 100 76 59 52 55 55 62 80 56 62
77 43 75 89 61 35 32 32 32 44 34 44 43 37 37 31 30 32 34 37 42 49 51 56 63 70 69 70 73 74 94 100 99 96 95 97 61 67 86 98 83 86 91 85
81 59 82 46 35 32 38 33 28 28 28 26 31 26 28 29 31 34 31 34 40 44 48 52 52 54 56 57 61 65 66 80 96 90 91 98 98 94 99 94 92 85 87 90
89 70 50 34 25 28 49 49 29 27 26 24 24 24 27 30 29 36 34 41 47 42 46 47 49 50 51 55 53 53 55 60 69 86 89 91 90 90 99 99 98 100 91 90
82 89 76 32 23 27 29 59 26 26 27 26 24 36 42 29 31 38 72 55 47 49 45 53 56 52 64 57 56 54 55 52 55 57 63 79 84 94 100 94 99 86 84 86
79 76 50 25 19 19 53 46 25 24 28 30 39 34 44 49 42 43 97 100 65 80 75 98 87 65 91 93 87 85 64 54 53 48 51 60 67 64 69 71 72 79 84 82
72 85 77 23 22 32 32 29 27 26 31 83 77 100 98 72 63 58 78 100 100 100 100 100 100 96 97 94 100 98 89 83 77 73 61 58 68 67 60 60 67 69 63 64
54 51 33 31 32 33 41 34 35 34 31 32 92 99 69 51 49 52 70 80 90 100 100 100 100 96 97 100 91 90 88 82 83 91 88 93 95 94 69 66 68 69 64 67
60 41 34 29 30 29 26 29 26 26 27 29 36 52 63 49 45 51 55 61 73 88 99 100 100 95 96 92 88 87 88 88 91 91 99 99 81 79 74 77 78 74 70 74
74 48 37 34 30 34 39 40 38 32 30 34 32 36 51 48 48 46 48 57 60 66 73 82 79 94 94 89 82 74 80 86 70 70 76 86 78 73 70 90 75 72 77 76
79 42 39 36 42 39 38 39 39 38 35 32 34 33 40 41 41 44 50 50 50 56 62 65 67 73 72 66 59 64 66 63 65 63 65 66 66 74 90 74 77 78 71 72
53 37 40 42 35 30 36 42 46 49 40 38 35 32 37 38 41 55 45 44 46 51 54 57 59 60 58 55 53 55 51 50 55 58 57 61 62 72 79 94 80 77 68 67
37 34 38 37 39 34 34 36 50 65 51 43 37 35 36 39 43 41 44 46 47 52 55 54 54 57 56 53 50 52 46 61 55 58 62 65 65 75 76 83 87 89 75 68
33 29 31 33 36 34 33 34 41 48 50 48 50 53 60 59 51 47 48 44 45 48 50 48 50 54 49 51 48 48 48 54 68 76 82 80 79 79 82 78 77 84 81 70
28 24 27 30 26 25 31 34 33 34 42 47 50 51 47 49 50 50 47 48 55 58 54 76 59 58 52 49 47 55 79 85 82 86 88 84 83 81 84 76 78 78 76 73
39 44 40 39 36 36 28 25 26 26 28 39 54 58 54 58 58 57 55 56 83 85 77 82 95 94 98 98 79 65 75 78 77 81 79 77 78 77 75 78 74 72 74 82
47 48 47 48 50 48 39 37 41 46 50 57 88 100 100 100 84 93 96 100 100 100 100 100 98 95 96 94 72 70 78 75 73 80 77 79 76 71 73 70 66 67 67 82
51 52 53 51 56 54 50 62 82 96 100 100 100 100 100 100 100 100 100 100 100 100 100 100 89 86 80 80 65 66 78 79 71 71 74 83 88 74 77 77 71 70 73 79
59 64 66 78 84 88 93 99 100 100 100 100 100 100 100 100 100 100 100 100 98 87 93 85 76 70 71 70 77 64 79 83 73 84 93 84 91 91 84 70 69 77 87 84
85 93 98 99 100 100 100 100 100 100 100 100 100 100 100 100 100 99 99 90 99 92 79 80 67 67 62 63 61 90 90 92 94 86 88 86 87 82 83 84 81 82 86 88
94 100 100 100 100 100 100 100 100 100 100 100 100 100 100 99 100 99 100 90 88 88 81 74 66 68 64 73 63 96 86 80 81 82 84 86 86 85 85 84 83 88 90 87
100 99 99 100 100 100 97 98 98 100 99 100 100 100 100 98 99 99 94 93 88 86 71 76 79 82 80 99 99 95 91 91 88 88 89 89 84 86 86 88 87 88 90 89
97 95 100 100 100 89 93 95 84 91 95 94 98 100 93 96 97 77 75 83 87 96 98 95 90 82 89 100 99 96 94 89 87 91 84 81 89 91 94 90 87 87 88 86
91 89 92 90 79 78 78 76 77 73 70 69 70 70 73 74 89 85 86 89 90 87 94 94 92 88 100 100 98 94 90 88 90 90 90 89 92 90 91 88 86 87 88 84
72 68 66 65 68 65 64 62 69 71 73 84 86 91 91 85 81 81 83 83 84 82 86 90 93 100 100 97 98 96 94 91 89 88 87 88 87 86 85 82 84 82 83 82
69 75 65 66 63 64 66 68 77 80 84 88 90 89 85 89 87 82 84 87 89 89 90 90 93 94 94 94 93 91 86 85 87 83 87 86 83 83 82 83 84 85 88 88

GFSNGP_sfc_rhum_168.txt.gz
RH
68 56 44 46 47 68 98 88 98 62 56 42 36 49 56 49 39 38 35 36 41 54 67 68 84 89 87 88 98 98 100 95 99 93 84 75 76 71 68 70 67 63 66 66
82 43 40 53 51 49 52 82 76 63 57 35 35 33 46 48 41 35 37 37 42 52 67 74 84 84 82 81 92 88 100 100 99 92 91 80 74 72 74 73 94 88 79 79
70 43 49 74 53 44 61 38 43 61 43 28 33 37 40 39 41 37 35 38 41 50 63 68 79 76 82 81 84 88 98 100 96 90 89 85 72 81 94 91 91 92 92 90
77 60 87 43 27 45 65 68 49 26 23 25 28 32 33 33 34 36 36 38 42 48 60 63 71 70 75 74 75 86 92 92 92 88 88 98 92 91 92 92 92 93 92 90
80 62 54 41 31 32 37 65 38 31 30 31 40 37 33 34 32 39 45 47 49 47 51 60 66 68 70 72 69 72 77 82 80 87 91 93 93 92 95 93 93 91 90 90
81 74 68 38 23 22 29 72 34 30 32 31 30 60 68 56 54 45 84 63 54 55 52 62 68 65 73 71 69 68 68 70 69 74 83 90 91 93 92 91 93 90 89 91
88 83 55 29 26 25 79 58 35 33 31 36 47 50 63 64 66 76 97 100 70 67 65 77 76 68 85 86 82 78 70 67 67 67 76 80 85 85 87 86 83 88 87 86
94 96 86 32 41 47 49 48 38 36 39 63 76 97 96 79 76 70 84 100 100 100 100 100 96 91 92 92 98 84 81 81 81 76 73 74 80 81 77 78 84 86 82 79
97 93 65 62 40 51 70 54 52 58 65 67 74 90 75 61 54 63 78 93 97 100 100 100 99 94 91 100 94 94 87 84 79 80 78 81 85 85 80 79 82 83 81 86
64 51 48 56 50 59 61 41 38 37 39 39 41 68 71 57 50 57 64 76 90 95 100 100 100 91 95 94 92 87 84 83 85 82 86 87 86 84 82 84 86 84 83 87
60 56 57 47 40 45 40 38 36 42 43 40 36 38 59 58 50 51 57 69 77 82 91 94 92 95 91 86 78 76 78 81 77 81 86 88 84 84 85 90 82 84 87 89
75 59 83 91 89 53 43 32 37 53 56 48 45 38 38 54 47 48 58 63 66 72 78 78 84 84 79 72 67 74 76 75 77 81 82 82 81 88 82 84 80 78 76 85
56 50 52 67 68 31 32 34 39 47 56 58 48 37 37 45 47 62 54 56 61 67 70 71 75 77 71 66 68 72 70 70 73 76 75 77 79 82 95 91 80 76 81 85
40 51 85 64 43 34 35 33 52 61 66 76 71 47 45 46 51 50 52 52 56 59 64 66 71 76 73 67 68 69 67 72 71 76 76 77 78 81 87 93 95 97 76 82
39 34 52 26 30 32 31 31 37 56 64 67 70 78 65 56 57 63 61 58 58 61 62 62 66 72 66 67 65 66 64 70 75 81 81 79 82 83 84 87 89 93 92 86
52 41 23 26 29 29 25 26 35 36 61 58 62 66 66 69 83 81 74 73 79 80 72 75 71 68 66 64 61 65 74 80 79 87 85 84 85 84 87 86 86 93 91 90
41 37 45 46 45 43 38 37 31 40 54 62 66 67 61 73 76 76 75 76 85 84 83 79 82 77 76 78 72 76 79 83 83 86 83 83 84 86 88 84 88 90 87 85
46 46 50 49 53 54 54 56 79 88 96 97 98 100 100 98 89 96 100 98 99 100 100 95 91 87 86 84 72 78 81 82 84 85 82 85 84 81 88 84 84 84 84 87
50 54 59 65 72 75 87 93 96 95 98 99 100 100 100 100 100 100 99 95 97 98 100 93 92 85 81 84 76 82 82 82 83 84 82 86 89 88 89 86 84 84 95 89
66 74 79 91 92 95 97 98 100 98 100 100 100 100 100 100 100 98 94 96 96 92 93 88 80 77 75 82 81 80 83 84 83 88 89 91 95 97 91 84 88 91 96 90
93 94 97 94 98 99 98 96 96 99 100 100 100 100 99 99 98 97 97 96 99 90 85 82 76 77 70 74 79 88 89 89 91 94 97 97 98 98 97 90 88 88 96 91
99 100 100 100 98 98 98 99 99 98 98 99 99 99 98 99 98 98 99 95 92 86 84 82 78 79 76 80 86 92 90 88 94 91 92 94 93 95 94 88 89 91 92 94
99 97 95 96 95 96 95 96 96 96 97 98 98 99 98 99 100 97 96 98 97 99 98 98 98 88 81 95 93 91 89 90 91 90 90 91 92 91 91 90 89 91 92 93
96 93 90 100 100 85 89 92 90 94 95 96 99 100 96 96 98 98 98 99 99 100 98 92 87 86 96 96 93 92 92 92 92 92 90 89 91 90 89 91 91 94 95 97
88 86 87 89 76 83 83 81 82 83 86 86 89 90 91 90 93 97 96 97 96 92 93 87 87 97 97 95 95 94 93 93 92 92 90 91 91 93 97 93 93 92 93 92
73 73 71 68 69 67 68 72 81 83 85 93 94 95 94 90 89 91 94 92 92 92 95 96 97 97 96 95 95 94 95 94 92 91 91 94 95 96 94 93 95 92 92 92
74 78 68 70 69 74 78 82 88 93 93 93 96 96 94 94 93 91 91 93 94 95 96 96 97 97 96 96 96 96 94 93 91 92 94 92 91 92 91 91 92 96 95 96

GFSNGP_sfc_rhum_174.txt.gz
RH
82 79 72 68 70 64 83 87 98 86 84 62 55 63 56 53 61 67 65 71 77 85 87 82 85 85 82 81 87 86 87 84 92 88 85 84 83 82 82 77 75 72 76 80
83 76 57 83 60 53 57 60 60 59 58 44 52 52 53 54 60 66 66 65 72 79 79 79 79 81 76 80 85 81 90 95 93 90 94 89 91 91 88 82 84 85 81 81
69 56 80 88 54 49 46 38 53 64 50 44 59 58 58 52 52 59 58 59 70 74 76 78 78 76 80 80 80 79 89 96 96 97 99 99 94 92 92 91 91 91 88 88
81 67 91 52 39 44 48 43 36 37 39 49 60 66 66 63 49 47 60 59 64 70 73 75 77 76 77 78 77 81 86 90 97 97 100 100 99 96 95 95 94 91 91 92
95 81 68 53 42 47 53 57 73 76 53 63 65 76 73 72 74 70 63 61 66 67 73 78 80 77 78 79 78 79 85 87 89 96 99 99 97 97 98 96 94 93 91 92
98 97 92 59 74 65 66 78 81 76 86 72 70 90 89 87 83 82 96 92 80 82 80 89 84 78 84 84 83 84 86 84 84 88 93 97 96 96 96 93 94 94 95 93
94 94 82 84 72 65 83 83 87 81 81 83 87 90 81 81 77 86 99 100 90 90 90 91 88 84 88 90 91 90 86 84 86 85 89 90 92 96 90 91 91 94 93 95
96 97 93 83 72 93 93 86 94 94 83 91 88 90 87 83 85 81 90 100 100 98 97 95 91 89 91 91 92 93 91 90 90 90 96 95 95 96 89 89 93 95 92 90
97 96 81 57 72 80 74 76 84 94 86 83 87 85 70 74 79 87 96 98 99 100 100 97 93 90 92 92 92 91 90 91 92 91 96 96 96 96 97 94 91 92 92 95
74 68 54 40 55 62 62 61 84 87 82 79 80 79 82 79 82 94 97 96 96 98 99 100 94 92 90 92 90 92 95 95 94 93 97 96 93 94 96 95 93 91 90 92
68 59 50 43 50 55 52 55 74 72 82 76 80 78 79 82 87 92 96 95 94 94 98 98 95 96 92 90 89 93 95 98 98 96 95 96 94 95 96 89 84 88 89 90
80 59 68 61 51 51 51 69 76 76 74 77 76 74 75 82 82 87 98 88 92 93 94 93 94 95 91 87 88 92 96 96 96 96 96 96 96 98 87 83 80 78 79 85
69 53 53 52 49 46 61 66 77 73 78 86 71 70 70 75 78 84 92 95 88 92 92 93 94 92 87 86 87 91 88 94 94 93 94 96 95 90 96 92 85 84 85 82
59 62 63 50 68 60 55 68 65 70 85 85 78 79 83 78 74 78 86 90 89 88 89 92 95 96 92 92 98 92 83 86 87 88 88 89 89 90 92 94 96 98 91 89
54 48 52 71 66 63 58 62 61 84 86 91 88 88 84 82 84 85 82 83 87 91 90 87 90 89 79 81 78 78 80 86 89 90 91 91 93 96 96 96 98 97 99 97
55 76 74 74 73 69 75 82 87 93 96 87 91 90 81 82 86 84 83 84 88 92 92 92 90 87 83 78 78 82 87 90 91 92 95 95 96 96 96 96 98 98 97 98
98 96 92 95 93 93 96 94 93 96 96 94 94 98 85 88 92 93 93 93 94 94 95 94 95 90 89 88 84 87 91 90 90 91 92 94 93 93 93 94 95 96 97 97
82 97 97 93 88 94 90 90 89 90 94 90 94 98 97 96 95 100 100 100 97 98 96 93 91 90 88 88 86 89 89 91 90 92 90 94 93 92 92 94 94 95 98 97
83 87 88 88 88 88 91 92 96 98 99 99 99 99 99 99 99 99 99 99 98 97 99 92 90 89 89 91 87 89 91 94 93 94 92 94 94 94 95 94 95 95 95 96
87 86 87 94 96 97 97 97 97 99 99 99 99 99 99 99 98 98 99 99 100 100 97 93 92 98 94 89 90 91 92 94 95 96 96 95 96 97 96 95 95 95 95 96
98 98 99 99 99 99 99 98 98 99 99 99 99 99 99 99 98 98 99 99 99 96 91 92 89 91 88 90 88 94 95 96 96 96 96 97 97 97 97 97 96 96 96 96
98 99 98 98 98 99 98 98 98 98 98 98 98 98 98 99 98 98 99 98 99 93 92 92 92 92 93 94 93 96 97 97 98 98 98 98 98 97 97 97 97 97 96 96
97 96 96 96 97 99 97 97 98 98 98 98 98 99 99 99 99 97 97 98 99 97 97 98 98 98 99 98 98 98 98 98 98 98 98 98 98 98 97 97 97 96 97 96
95 94 96 99 97 96 97 99 97 97 97 97 98 98 96 98 98 97 98 98 98 98 98 98 98 98 97 98 97 98 98 98 98 98 99 99 99 98 98 97 97 97 97 96
94 94 93 95 91 98 96 96 93 91 90 94 96 97 94 96 98 99 98 98 98 98 98 98 98 98 97 97 98 98 98 98 97 98 98 98 98 98 98 98 98 98 98 96
90 94 91 83 84 87 96 97 96 96 93 99 98 98 98 98 97 97 97 97 97 97 97 98 97 97 97 97 97 97 98 97 97 98 98 99 99 99 99 99 98 98 98 98
93 88 86 89 91 92 96 96 97 99 98 98 98 98 98 97 97 97 96 97 97 97 97 98 97 97 97 97 98 98 98 98 99 98 98 98 98 98 97 97 97 97 97 97

GFSNGP_sfc_rhum_177.txt.gz
RH
80 70 63 82 76 72 74 72 95 69 67 58 55 65 63 58 54 50 62 73 77 85 87 90 92 94 95 91 96 94 95 91 94 84 82 81 81 78 77 77 80 80 80 81
89 48 58 76 70 64 49 48 54 63 72 49 44 42 61 60 62 62 56 70 79 80 83 86 90 92 88 87 91 86 93 96 90 86 88 81 80 82 84 87 89 88 85 82
84 46 62 85 51 37 41 40 46 58 45 64 49 42 48 58 63 64 55 51 74 83 82 81 83 84 84 84 85 82 91 96 94 92 90 87 84 87 93 94 92 92 90 90
94 71 99 48 42 41 50 51 81 83 85 86 79 65 64 67 78 80 75 56 70 75 82 82 80 78 79 80 79 82 87 89 94 93 94 94 93 95 97 96 94 94 93 94
98 90 62 49 61 84 84 79 87 92 79 78 81 75 74 77 79 85 90 82 75 75 81 82 80 78 79 79 78 79 83 86 86 93 97 98 97 97 96 96 97 97 95 94
97 97 92 76 82 74 72 90 70 79 88 86 83 97 95 78 80 78 93 97 86 88 90 88 85 81 86 82 81 81 80 79 81 85 91 95 96 96 96 96 97 97 95 93
92 90 79 95 96 77 82 90 83 76 88 92 95 90 86 78 79 77 92 100 97 93 94 93 88 85 90 89 87 84 84 83 85 85 90 93 96 97 97 97 96 92 90 95
97 94 95 77 78 87 85 84 86 76 82 97 95 94 93 87 80 77 85 96 100 100 100 97 92 90 91 91 93 95 95 95 95 96 95 97 96 98 98 97 95 91 84 88
81 82 59 90 80 71 73 81 65 64 81 99 98 94 87 82 78 73 87 95 98 100 100 98 94 90 93 93 94 94 96 97 98 98 98 98 97 98 97 97 96 93 84 89
90 67 60 52 48 51 61 55 52 52 73 82 93 85 84 79 75 81 96 95 95 99 100 100 98 95 92 95 92 92 94 96 97 97 98 98 98 97 96 96 97 95 95 95
68 58 57 52 48 55 53 52 53 62 79 80 82 82 76 78 82 95 95 92 92 98 99 99 95 97 95 94 92 93 94 96 96 97 98 98 97 96 95 96 93 95 94 92
71 53 64 58 62 56 57 53 55 80 86 84 80 79 83 91 92 96 95 88 88 92 96 95 94 97 94 92 90 93 95 94 94 96 97 97 97 98 98 96 97 96 79 84
57 50 58 56 55 49 48 58 68 80 78 89 74 79 81 83 88 94 97 88 88 93 92 93 94 93 89 87 88 88 89 94 96 96 96 96 97 96 96 98 97 81 82 81
55 62 70 58 54 48 55 62 77 77 73 89 83 87 83 81 84 89 95 95 86 90 94 94 94 95 90 88 96 97 94 94 93 95 97 97 97 97 97 96 98 97 87 85
60 61 55 48 49 56 66 69 69 77 83 90 88 86 83 82 88 92 93 94 90 90 94 93 96 98 97 98 98 97 96 96 97 97 98 97 97 97 96 93 94 97 98 95
61 62 62 69 77 86 88 88 91 97 97 97 95 92 83 87 88 90 92 93 96 98 96 94 94 98 99 98 97 97 98 97 96 96 96 96 96 96 96 97 96 95 97 97
93 91 84 94 89 96 95 91 88 90 90 92 92 93 97 90 90 90 90 92 93 93 94 93 96 97 96 93 88 91 93 94 93 95 94 94 95 95 95 96 97 97 98 100
85 83 95 98 95 92 93 90 88 89 94 88 97 98 99 96 94 98 99 99 98 98 97 96 94 94 95 93 91 92 93 94 92 94 94 95 94 92 94 95 96 97 98 99
96 97 91 85 88 86 88 93 97 99 99 99 98 99 99 99 99 99 99 99 98 98 99 98 95 94 94 92 89 91 93 95 94 94 94 97 96 95 96 96 96 96 96 96
89 87 93 96 95 95 96 98 97 99 99 98 98 98 99 99 98 99 99 99 99 99 97 98 98 97 96 91 92 93 95 95 96 96 96 96 97 97 97 96 96 96 96 96
98 96 98 98 99 98 99 98 99 99 99 98 98 99 99 99 98 98 98 99 99 97 93 97 97 98 98 95 92 96 96 97 97 97 96 96 97 97 97 97 96 96 96 96
97 98 98 97 98 98 98 98 98 97 98 97 98 98 98 98 97 97 99 98 99 95 95 96 95 95 97 97 96 97 97 96 97 98 98 97 97 97 97 97 96 97 96 96
96 96 96 96 98 99 98 98 98 98 98 98 98 98 99 99 99 98 97 98 99 98 97 98 98 98 98 97 97 97 97 97 98 98 98 98 98 98 98 97 97 97 97 97
96 96 98 99 97 95 98 98 97 96 97 96 98 98 97 97 98 97 99 99 98 98 98 98 98 98 97 98 98 98 98 98 99 99 98 99 99 98 98 98 97 97 97 97
96 95 96 95 92 99 96 92 91 90 90 95 93 90 92 97 97 98 98 98 98 97 98 98 98 98 98 98 98 98 98 98 99 98 99 99 100 100 99 98 98 98 98 98
89 94 93 85 87 90 96 97 95 96 93 97 98 98 98 97 97 98 97 98 97 97 98 98 97 97 97 97 98 98 98 98 98 98 98 99 98 99 99 100 100 99 98 98
92 92 88 90 94 93 98 96 98 99 98 98 98 98 98 98 97 97 97 97 97 97 97 97 97 98 97 97 98 98 98 99 99 99 99 99 99 98 98 98 97 97 97 97

GFSNGP_sfc_rhum_183.txt.gz
RH
68 59 56 60 65 53 52 59 76 57 49 44 42 40 40 56 56 60 60 61 58 65 65 63 86 92 98 98 99 97 99 98 100 97 96 95 96 94 91 91 86 78 78 79
85 57 51 49 39 38 38 37 41 48 53 37 40 57 58 58 58 60 68 67 66 67 68 67 73 90 92 95 99 99 100 100 100 98 100 96 95 94 92 90 85 86 82 82
76 39 42 52 33 31 31 32 36 50 42 60 61 58 61 65 66 69 70 66 64 71 75 72 72 84 90 92 97 97 99 100 100 100 100 100 94 93 95 98 92 92 94 90
76 48 72 28 38 53 70 60 62 83 80 69 69 56 50 54 64 75 72 70 70 69 78 75 72 82 83 88 91 94 95 97 100 100 100 100 100 100 98 97 96 94 97 98
77 68 46 38 49 62 65 57 58 80 71 66 62 56 46 48 60 70 76 76 74 70 79 78 77 78 80 84 84 89 93 95 96 99 100 100 99 98 99 100 100 100 98 99
85 87 72 33 63 53 58 74 56 44 44 51 55 80 61 51 70 82 82 79 74 75 79 80 86 78 82 83 86 86 87 86 88 90 92 95 95 96 97 100 100 98 100 98
81 78 56 40 44 51 60 50 43 43 47 54 72 66 56 65 90 84 81 96 80 88 93 92 88 85 93 100 99 97 87 79 80 81 87 88 93 95 95 96 98 100 100 97
88 93 87 41 58 64 38 44 47 48 59 69 75 66 70 89 94 81 74 77 100 100 100 100 100 98 100 100 100 100 100 100 98 92 85 91 94 96 95 96 97 97 94 96
78 73 50 65 46 40 49 54 52 58 58 62 65 66 77 89 89 76 82 79 83 100 100 100 100 100 100 100 100 100 100 100 100 100 100 100 97 97 97 98 94 93 94 96
61 38 44 43 42 44 45 44 42 43 48 54 54 58 83 92 76 74 89 91 87 96 100 100 100 100 100 100 100 100 100 100 100 100 100 99 95 93 94 97 97 95 96 96
52 48 40 41 42 42 40 43 44 45 45 48 53 70 85 88 75 74 81 84 85 88 95 97 92 97 99 98 95 98 100 100 100 99 99 98 94 94 96 96 89 91 91 93
65 40 44 40 39 38 44 42 42 45 47 49 49 68 86 81 70 73 80 80 79 86 93 93 91 95 93 89 92 99 99 98 97 98 98 97 96 99 100 99 99 97 94 93
51 43 45 47 42 38 44 44 45 47 50 51 56 81 82 79 69 80 84 83 87 92 92 93 92 95 91 89 90 94 95 96 95 96 96 95 96 95 95 100 98 98 97 97
47 52 65 57 59 49 50 49 51 48 57 90 90 83 84 71 71 78 87 83 85 92 94 93 95 97 97 92 92 93 92 94 93 94 95 96 94 94 95 94 95 96 98 96
65 61 77 75 66 62 53 48 52 67 88 96 89 94 92 79 73 80 82 81 85 91 94 94 96 98 96 95 93 95 94 95 96 96 96 95 94 95 95 95 95 96 96 97
75 94 94 69 59 56 54 63 82 97 98 88 87 88 91 87 77 78 79 81 89 95 95 98 98 100 99 98 96 96 97 96 92 92 94 92 92 93 93 94 96 95 94 94
95 72 72 73 68 72 97 98 99 100 99 90 91 92 92 91 80 83 92 83 91 95 96 93 100 100 100 100 98 93 90 92 95 95 94 93 92 94 95 94 94 93 94 95
91 97 96 96 90 94 99 100 99 96 97 96 97 98 99 100 98 98 100 98 100 98 98 99 100 98 99 99 91 88 88 93 92 92 91 93 92 92 93 94 93 92 94 93
97 100 98 96 98 98 97 96 97 98 99 99 98 99 99 99 99 100 100 100 100 100 100 98 97 93 91 93 87 89 92 93 89 86 86 91 91 87 90 91 91 92 92 92
98 98 98 97 94 95 97 98 97 98 98 98 98 98 98 98 98 99 98 99 99 97 97 96 96 96 96 89 88 82 86 91 88 90 91 89 92 94 91 86 88 93 96 93
93 92 96 96 98 98 98 98 97 98 97 96 96 97 97 96 96 96 95 94 98 96 96 95 88 86 83 88 92 95 91 94 93 91 92 92 94 91 93 92 93 94 94 94
92 95 96 97 98 98 97 96 95 95 95 95 94 94 94 95 94 94 97 97 92 97 95 94 92 90 86 93 91 97 94 90 91 91 93 93 93 94 94 94 93 94 94 94
94 95 96 97 97 97 96 96 96 95 95 96 96 96 94 94 92 90 89 94 91 96 92 96 96 96 96 99 98 99 98 96 96 93 95 96 96 97 95 95 94 94 94 93
93 92 94 94 96 92 92 92 88 89 95 92 97 98 89 90 93 88 89 93 97 99 99 99 98 97 96 99 98 96 96 96 96 96 95 94 97 96 97 96 95 96 95 93
92 91 93 93 85 90 89 87 85 82 82 82 86 85 87 85 92 94 94 95 96 96 98 98 97 97 99 98 96 96 96 96 97 96 96 97 97 97 96 94 94 94 94 93
86 87 86 80 78 80 85 87 86 85 81 89 92 95 95 92 90 91 93 94 94 93 95 97 96 97 96 94 95 95 95 93 95 96 97 97 97 95 95 94 94 94 95 94
83 88 88 81 79 82 88 85 89 91 90 92 93 94 93 94 94 93 94 94 94 94 95 95 95 93 94 95 96 96 96 97 95 95 94 94 94 95 95 94 94 94 94 94